Погода в Коккола

Финляндия     63°49′52″N   23°08′32″E
темп.,
°C
ветер,
м/с
пор.,
м/с
влажн.,
%
обл.,
%
осадки,
мм/ч
давл.,
гПа
погр.,
м
27 сентября, пн
пн2700:00+6ю37845 0.0 1024135
03:00+5ю398549 0.0 1025154
06:00+6ю398857 0.0 1026156
09:00+7ю39797 0.0 1027217
12:00+14ю47585 0.0 1029417
15:00+16ююз354910 0.0 1029789
18:00+13ююв2267100 0.0 102920
21:00+9ююв257898 0.0 103077
28 сентября, вт
вт2800:00+7ююв278821 0.0 1030122
03:00+6ююв389417 0.0 1031157
06:00+5ююв389629 0.0 1031172
09:00+7ююв3108327 0.0 1031279
12:00+12ю47595 0.0 1032570
15:00+14ю46555 0.0 1031992
18:00+12ююв24713 0.0 1031102
21:00+8ююв24905 0.0 103273
29 сентября, ср
ср2900:00+7ююв26965 0.0 1033110
03:00+6ююв269746 0.0 1034112
06:00+5ююв259710 0.0 1034111
09:00+6ююв269257 0.0 1034171
12:00+12ююв35665 0.0 1034487
15:00+14ю346027 0.0 10331077
18:00+12ю2369100 0.0 103268
21:00+11ююв2369100 0.0 103280
30 сентября, чт
чт3000:00+9ююв2584100 0.0 1033153
03:00+9ююв2587100 0.1 1032151
06:00+8юв2483100 0.0 1032143
09:00+9юв2679100 0.0 1031233
12:00+10юв3768100 0.0 1031449
15:00+11юв3663100 0.0 1030663
18:00+10вюв2568100 0.0 1028176
21:00+9юв3867100 0.0 1027307
1 октября, пт
пт100:00+8юв3873100 0.0 1026304
03:00+8юв3975100 0.0 1025273
06:00+8юв41272100 0.0 1023552
09:00+8ююв4118025 0.1 1022692
12:00+11ююв5117165 0.0 1022795
15:00+13ю5106198 0.0 10221276
18:00+11ююв5107160 0.0 1021999
21:00+11ююв51275100 0.0 10201058